Weather History for Owatonna, MN

Change the Weather History Date:

Friday, January 25, 2013

  Actual Average Record
Temperature  
Mean Temperature 14 °F -  
Max Temperature 24 °F 25 °F 54 °F (1981)
Min Temperature 3 °F 4 °F -18 °F (1972)
Degree Days  
Heating Degree Days 52    
Moisture  
Dew Point 2 °F    
Average Humidity 57    
Maximum Humidity 68    
Minimum Humidity 39    
Precipitation  
Precipitation 0.00 in - - ()
Sea Level Pressure  
Sea Level Pressure 30.07 in    
Wind  
Wind Speed 14 mph (West)    
Max Wind Speed 36 mph    
Max Gust Speed 45 mph    
Visibility 10 miles    
Events Rain , Snow    
Averages and records for this station are not official NWS values.
T = Trace of Precipitation, MM = Missing Value Source: NWS Daily Summary

Daily Weather History Graph

Daily Weather History Graph

Search for Another Location

Airport:

Trip Planner

Search our weather history database for the weather conditions in past years. The results will help you decide how hot, cold, wet, or windy it might be!

Date:

Astronomy

Jan. 25, 2013 Rise Set
Actual Time 7:37 AM CST 5:13 PM CST
Civil Twilight 7:06 AM CST 5:45 PM CST
Nautical Twilight 6:31 AM CST 6:20 PM CST
Astronomical Twilight 5:56 AM CST 6:54 PM CST
Moon 4:11 PM CST (1/25) 6:17 AM CST (1/25)
Length of Visible Light 10h 39m
Length of Day
9h 36m
Waxing Gibbous, 98% of the Moon is Illuminated
Jan 25
Waxing Gibbous
Jan 26
Full
Feb 3
Last Quarter
Feb 10
New
Feb 17
First Quarter

Hourly Weather History & Observations

Time (CST) Temp. Windchill Dew Point Humidity Pressure Visibility Wind Dir Wind Speed Gust Speed Precip Events Conditions
12:14 AM 17.6 °F 5.7 °F 6.8 °F 63% 30.13 in 5.0 mi South 10.4 mph - N/A Rain Light Freezing Rain
12:33 AM 17.6 °F 6.4 °F 6.8 °F 63% 30.14 in 5.0 mi South 9.2 mph - N/A Rain Light Freezing Rain
12:53 AM 17.6 °F 5.0 °F 8.6 °F 68% 30.12 in 7.0 mi South 11.5 mph - N/A Rain Light Freezing Rain
1:13 AM 17.6 °F 5.0 °F 8.6 °F 68% 30.11 in 10.0 mi South 11.5 mph - N/A   Overcast
1:54 AM 17.6 °F 3.7 °F 8.6 °F 68% 30.09 in 7.0 mi South 13.8 mph 17.3 mph N/A Rain Light Freezing Rain
2:13 AM 17.6 °F 5.7 °F 8.6 °F 68% 30.08 in 10.0 mi South 10.4 mph - N/A Rain Light Freezing Rain
2:53 AM 17.6 °F 3.2 °F 8.6 °F 68% 30.05 in 10.0 mi South 15.0 mph 18.4 mph N/A   Overcast
3:14 AM 17.6 °F 3.7 °F 8.6 °F 68% 30.04 in 10.0 mi South 13.8 mph 17.3 mph N/A   Overcast
3:34 AM 17.6 °F 3.7 °F 6.8 °F 63% 30.04 in 10.0 mi SSW 13.8 mph - N/A   Overcast
3:54 AM 17.6 °F 3.2 °F 6.8 °F 63% 30.02 in 10.0 mi SSW 15.0 mph - N/A   Overcast
4:13 AM 17.6 °F 3.7 °F 6.8 °F 63% 30.02 in 10.0 mi SSW 13.8 mph 20.7 mph N/A   Overcast
4:34 AM 17.6 °F 4.3 °F 6.8 °F 63% 30.00 in 10.0 mi SSW 12.7 mph - N/A   Mostly Cloudy
4:53 AM 17.6 °F 3.2 °F 5.0 °F 58% 29.98 in 10.0 mi SSW 15.0 mph - N/A   Scattered Clouds
5:14 AM 17.6 °F 3.2 °F 5.0 °F 58% 29.98 in 10.0 mi SSW 15.0 mph - N/A   Mostly Cloudy
5:34 AM 17.6 °F 3.7 °F 3.2 °F 53% 29.98 in 10.0 mi SSW 13.8 mph - N/A   Mostly Cloudy
5:54 AM 17.6 °F 4.3 °F 3.2 °F 53% 29.96 in 10.0 mi SSW 12.7 mph - N/A   Mostly Cloudy
6:13 AM 17.6 °F 2.7 °F 3.2 °F 53% 29.96 in 10.0 mi SSW 16.1 mph 19.6 mph N/A   Scattered Clouds
6:33 AM 17.6 °F 3.7 °F 3.2 °F 53% 29.95 in 10.0 mi SW 13.8 mph - N/A   Clear
6:53 AM 15.8 °F 1.4 °F 3.2 °F 58% 29.95 in 10.0 mi SW 13.8 mph - N/A   Clear
7:13 AM 15.8 °F 1.4 °F 3.2 °F 58% 29.95 in 10.0 mi SSW 13.8 mph - N/A   Scattered Clouds
7:34 AM 17.6 °F 3.2 °F 3.2 °F 53% 29.95 in 10.0 mi SW 15.0 mph - N/A   Mostly Cloudy
7:54 AM 17.6 °F 3.2 °F 5.0 °F 58% 29.95 in 10.0 mi WSW 15.0 mph 19.6 mph N/A   Overcast
8:13 AM 17.6 °F 3.7 °F 6.8 °F 63% 29.95 in 10.0 mi WSW 13.8 mph 18.4 mph N/A   Overcast
8:33 AM 17.6 °F 5.7 °F 6.8 °F 63% 29.96 in 10.0 mi WSW 10.4 mph - N/A   Overcast
8:53 AM 17.6 °F 5.0 °F 8.6 °F 68% 29.96 in 10.0 mi WSW 11.5 mph - N/A Snow Light Snow
9:13 AM 19.4 °F 6.0 °F 8.6 °F 63% 29.96 in 10.0 mi WSW 13.8 mph - N/A   Overcast
9:34 AM 19.4 °F 6.0 °F 10.4 °F 68% 29.96 in 10.0 mi West 13.8 mph - N/A Rain Light Freezing Rain
9:54 AM 21.2 °F 7.8 °F 12.2 °F 68% 29.95 in 10.0 mi West 15.0 mph - N/A Rain Light Freezing Rain
10:13 AM 24.8 °F 9.6 °F 10.4 °F 54% 29.95 in 10.0 mi West 23.0 mph 31.1 mph N/A Rain Light Freezing Rain
10:33 AM 24.8 °F 6.6 °F 8.6 °F 50% 29.96 in 10.0 mi West 35.7 mph 44.9 mph N/A   Scattered Clouds
10:53 AM 21.2 °F 2.7 °F 5.0 °F 50% 29.97 in 10.0 mi WNW 31.1 mph 38.0 mph N/A   Scattered Clouds
11:13 AM 21.2 °F 4.2 °F 3.2 °F 46% 29.97 in 10.0 mi WNW 25.3 mph 38.0 mph N/A   Scattered Clouds
11:33 AM 21.2 °F 4.5 °F -0.4 °F 39% 29.98 in 10.0 mi WNW 24.2 mph 31.1 mph N/A   Clear
11:54 AM 21.2 °F 3.5 °F -0.4 °F 39% 29.99 in 10.0 mi WNW 27.6 mph 35.7 mph N/A   Clear
12:14 PM 19.4 °F 2.5 °F 1.4 °F 46% 29.99 in 10.0 mi West 23.0 mph 27.6 mph N/A   Clear
12:34 PM 21.2 °F 5.6 °F 1.4 °F 42% 30.00 in 10.0 mi WNW 20.7 mph 29.9 mph N/A   Clear
12:53 PM 21.2 °F 5.2 °F 1.4 °F 42% 30.01 in 10.0 mi WNW 21.9 mph 31.1 mph N/A   Clear
1:14 PM 19.4 °F 1.1 °F 1.4 °F 46% 30.01 in 10.0 mi WNW 27.6 mph 34.5 mph N/A   Clear
1:33 PM 19.4 °F 1.4 °F -0.4 °F 42% 30.03 in 10.0 mi WNW 26.5 mph 31.1 mph N/A   Clear
1:54 PM 17.6 °F -0.3 °F -0.4 °F 45% 30.03 in 10.0 mi WNW 24.2 mph 28.8 mph N/A   Clear
2:14 PM 17.6 °F 0.1 °F -0.4 °F 45% 30.04 in 10.0 mi WNW 23.0 mph 31.1 mph N/A   Clear
2:33 PM 17.6 °F 0.5 °F -0.4 °F 45% 30.05 in 10.0 mi West 21.9 mph 26.5 mph N/A   Clear
2:53 PM 17.6 °F -0.3 °F -0.4 °F 45% 30.06 in 10.0 mi WNW 24.2 mph 28.8 mph N/A   Clear
3:13 PM 17.6 °F 1.3 °F -0.4 °F 45% 30.06 in 10.0 mi WNW 19.6 mph 27.6 mph N/A   Clear
3:54 PM 15.8 °F -1.1 °F -0.4 °F 49% 30.07 in 10.0 mi WNW 19.6 mph - N/A   Clear
4:14 PM 15.8 °F -0.6 °F -0.4 °F 49% 30.08 in 10.0 mi WNW 18.4 mph 24.2 mph N/A   Clear
4:34 PM 15.8 °F 0.9 °F -0.4 °F 49% 30.09 in 10.0 mi WNW 15.0 mph - N/A   Clear
4:53 PM 14.0 °F -1.4 °F -0.4 °F 53% 30.10 in 10.0 mi WNW 15.0 mph - N/A   Clear
5:14 PM 12.2 °F -4.8 °F -0.4 °F 57% 30.11 in 10.0 mi WNW 17.3 mph 21.9 mph N/A   Clear
5:34 PM 12.2 °F -2.5 °F -0.4 °F 57% 30.12 in 10.0 mi WNW 12.7 mph 18.4 mph N/A   Clear
5:54 PM 12.2 °F -4.8 °F -0.4 °F 57% 30.13 in 10.0 mi NW 17.3 mph - N/A   Clear
6:14 PM 10.4 °F -4.8 °F -0.4 °F 62% 30.14 in 10.0 mi WNW 12.7 mph - N/A   Clear
6:34 PM 10.4 °F -4.1 °F -0.4 °F 62% 30.15 in 10.0 mi WNW 11.5 mph - N/A   Clear
6:54 PM 10.4 °F -1.5 °F -0.4 °F 62% 30.16 in 10.0 mi WNW 8.1 mph - N/A   Clear
7:13 PM 10.4 °F -3.3 °F -0.4 °F 62% 30.17 in 10.0 mi WNW 10.4 mph - N/A   Clear
7:33 PM 10.4 °F -3.3 °F -0.4 °F 62% 30.19 in 10.0 mi WNW 10.4 mph - N/A   Clear
7:55 PM 8.6 °F -4.7 °F -2.2 °F 62% 30.19 in 10.0 mi West 9.2 mph - N/A   Clear
8:14 PM 8.6 °F -5.5 °F -2.2 °F 62% 30.20 in 10.0 mi West 10.4 mph - N/A   Clear
8:34 PM 8.6 °F -5.5 °F -2.2 °F 62% 30.20 in 10.0 mi WNW 10.4 mph - N/A   Clear
8:53 PM 8.6 °F -3.7 °F -2.2 °F 62% 30.21 in 10.0 mi WNW 8.1 mph - N/A   Clear
9:13 PM 8.6 °F -5.5 °F -2.2 °F 62% 30.22 in 10.0 mi WNW 10.4 mph - N/A   Clear
9:33 PM 6.8 °F -7.8 °F -2.2 °F 67% 30.23 in 10.0 mi NW 10.4 mph - N/A   Clear
9:53 PM 6.8 °F -5.9 °F -4.0 °F 61% 30.23 in 10.0 mi NW 8.1 mph - N/A   Clear
10:14 PM 6.8 °F -5.9 °F -4.0 °F 61% 30.23 in 10.0 mi NW 8.1 mph - N/A   Clear
10:54 PM 6.8 °F -2.0 °F -4.0 °F 61% 30.24 in 10.0 mi WNW 4.6 mph - N/A   Clear
11:13 PM 5.0 °F -4.1 °F -5.8 °F 61% 30.25 in 10.0 mi WNW 4.6 mph - N/A   Clear
11:34 PM 3.2 °F -6.2 °F -5.8 °F 66% 30.25 in 10.0 mi NW 4.6 mph - N/A   Clear
11:53 PM 3.2 °F -4.2 °F -5.8 °F 66% 30.25 in 10.0 mi NNW 3.5 mph - N/A   Clear